星链-31972 (STARLINK-31972 )

导读

STARLINK-31972是美国SpaceX星链(Starlink)项目的卫星,于2024年6月1日发射入轨,属于低轨卫星星座组成部分。星链项目旨在为全球提供高速互联网接入服务,该卫星加入星座后,进一步扩充了星链卫星网络规模,提升系统覆盖能力与服务稳定性,助力全球偏远地区等场景的互联服务覆盖。

Basic Information
目录编号:
59923
目录名称:
STARLINK-31972
国际标识:
2024-106B
轨道中心:
EARTH
卫星名称:
星链-31972
卫星全名:
星链-31972 (STARLINK-31972 )
卫星状态:
在轨 (已飞行747 天)
发射日期:
2024-06-01 UTC
国别 :
美国 (US)
星等 :
--
Orbit Information
数据来源 国际轨道数据 AOE轨道数据
星历时间 2026-06-15T23:38:24+0800
2天前
查看轨道信息
2026-06-17T00:00:00+0800
1天前
查看轨道信息
半长轴 6861.196km 6861.216km
偏心率 0.0001571 0.0001649
轨道倾角 43.006° 43.004°
近地点辐角 269.803° 266.134°
升交点赤经 139.387° 133.659°
平近点角 90.265° 282.240°
近地点 481.981km 481.947km
远地点 484.137km 484.211km
周期 94.267分钟 94.267分钟
每日圈数 15.275768 15.275703
Detailed Information
固有亮度:
5
最大亮度:
1.5
卫星平台:
Starlink v2.0 mini
覆盖范围:
全球
运营商:
太空探索技术公司
运营商所在国:
美国
制造商(研发单位):
太空探索技术公司
制造商所在国:
美国
使用方式:
暂无
Satellite Introduction
星链(Starlink)计划是由太空探索技术公司(SpaceX)提出的一个巨型低轨卫星互联网星座项目,计划在2019年至2024年间在太空搭建由约1.2万颗卫星组成的“星链”网络,其中1584颗将部署在地球上空550千米处的近地轨道,并从2020年开始工作。该卫星仍在工作。
2D Orbit Map
3D Orbit Map
Orbit Altitude Analysis Chart
Orbit Inclination Analysis Chart
Orbit Comprehensive Analysis Chart
View Comprehensive Chart